[Date Prev][Date Next][Thread Prev][Thread Next][Date Index][Thread Index]

[jamsat-news:1727] jas2info #280




========================   最新情報   ==============================

        Last updated  24Jun2002  20:00(JST)   #280

====================================================================
   
1)アマチュア通信衛星情報、FOシリーズの軌道要素、テレメトリ、QSOの
   状況等をまとめてみました.
   
 FO−29の2002年6月24日(金)の18:21(JST)のパスでは
JARLのホームページのとうりアナログ運用でした。 今日までの観測した
テレメトリーと最終の分析結果を報告しておきます。

AS28898C  24Jun2002
18:21-18:36(JST)
AOS   MEL  LOS  Elev
  7   284  204  59.2
Freq. 435.805-.785MHz
(JAS-2 No.103 B 180  No.104 A 0-700) 
                                         78 4B 90 8C 99 85 86 8D 91 88 83 
HI HI AE 07 88 55 00 D4 0E 00 09 46 57 C6 73 4F 8F 8B 98 97 86 8D 91 88 83 
HI HI AE 07 88 55 00 D4 0E 00 09 46 56 75 BF 6D 8E 8A 97 AD 86 8D 91 88 83 
HI HI AE 07 88 55 00 D4 0E 00 09 46 55 67 AF 69 53 8D 96 65 85 8D 91 88 83 
HI HI AE 07 88 55 00 D4 0E 00 09 55 46 7  97 67 8D 8A 96 76 85 8C 91 88 83 
HI HI AE 07 88 55 00 D4 0E 00 09 46 78 7B 6C 52 8D 89 96 96 85 8C 91 88 83 
HI HI AE 07 88 55 00 D4 0E 00 09 46 7E 5F 6F 4E 8E 85 90 91 90 85 91 88 83
HI HI AE 07 88 55 00 D4 0E 00 09 46 79 4C       91 8D 9A 71 85 8C 91 89 83 
HI HI AE 07 88 55 00 D4 0E 00 09 46 75 27 7B 4A 91 8D 9B 7A 85 8C 91 88 83 
HI HI AE 07 88 55 00 D4 0E 00 09 46 6B 2F 7C 49 92 8D 9A 60 85 8C 91 88 83 
HI HI AE 07 88 55 00 D4 0E 00 09 46 5F 3F 7B 4A 91 8D 9A 78 85 8C 91 88 82  
HI HI AE 07 88 55 00 D4 0E 00 09 46 54 54 7A 4B 91 8D 9A 74 85 8C 91 88 82 
HI HI AE 07 88 55 00 D4 0E 00 09 46 4B 6B 79 4A 91 8D 9A 75 85 8C 91 88 82 
HI HI AE 07 88 55 00 D4 0E 00 09 46 45 81 78 4B 91 8D 9A 6F 8S 8C 91 88 82 
HI HI AE 07 88 55 00 D4 0E 00 09 46 42 91 6E 4F 90 8C 99 75 85 8C 91 88 82 
HI HI AE 07 88 55 00 D4 0E 00 09 46 45 9A 70 4F 8F 8B 98 7F 85 8C 91 88 82 
HI HI AE 07 88 55 00 D4 0E 00 09 46 4B 99 71 51 8F 8B 98 7E 85 8C 91 88 82 
HI HI AE 07 88 55 00 D4 0E 00 09 46 55 8F 74 4D 8F 8B 98 7F 85 8C 90 88 82

AS28856C  21Jun2002
17:35-17:51(JST)
AOS   MEL  LOS  Elev
 20   101  180  47.0
Freq. 435.805-.785MHz
(JAS-2 No.103 A 2380-2800  580)

                           00 09 O0 89 A2 7B 4A 92 8E 9B 7A 8D 8D 90 8E 84 
HI HI AE 07 88 55 00 D4 00 00 09 00 89 9F 7C 4A 92 8E 9B 6C 8D 8D 8F 8E 84 
HI HI AE 07 88 55 00 D4 00 00 09 00 89 9B 7B 4A 92 8E 9B 7A 8D 8D 8F 8E 84 
HI HI AE 07 88 55 00 D4 00 00 09 00 89 97 7B 4B 92 8E 9B 7A 8D 8D 8F 8E 84 
HI HI AE 07 88 55 00 D4 00 00 09 00 89 93 7D 4A 92 8E 9B 74 8D 8C 8F 8E 84 
HI HI AE 07 88 55 00 D4 00 00 09 00 89 8E 7E 49 93 8E 9C 76 8D 8C 8F 8E 84 
HI HI AE 07 88 55 00 D4 00 00 09 00 88 8A 7E 49 93 8E 9C 91 8D 8C 8F 8E 84 
HI HI AE 07 88 55 00 D4 00 00 09 00 87 85 7F 48 93 8E 9C 8A 8D 8C 8F 8E 84 
HI HI AE 07 88 55 00 D4 00 00 09 00 86 80 7F 49 93 8F 9C 77 8D 8D 8F 8E 84 
HI HI AE 07 88 55 00 D4 00 00 09 00 84 7C 7E 49 93 8E 9C 6A 8E 8C 8U 8E 84 
HI HI AE 07 88 55 00 D4 00 00 09 00 82 77 7D 49 93 8E 9C 72 8E 8C 8F 8E 84 
HI HI AE 07 88 55 00 D4 00 00 09 00 80 73 7B 4A 92 8E 9B 6C 8E 8D 8E 8E 84 
HI HI AE 07 88 55 00 D4 00 00 09 00 7D 6D 7A 4B 92 8E 9B 73 8E 8D 8E 8E 84 
HI HI AE 07 88 55 00 D4 00 00 09 00 7A 6A 79 4A 92 8D 9B 74 8E 8D 8E 8E 84 
HI HI AE 07 88 55 00 D4 00 00 09 00 77 66 79 4B 92 8D 9B 97 8E 8D 8E 8E 84 
HI HI AE 07 88 55 00 D4 00 00 09 00 73 63 79 4B 92 8E 9B 74 8E 8D 8E 8E 84 
HI HI AE 07 88 55 00 D4 00 00 09 00 70 5F 79 4C 92 8D 9B 7F 8E 8D 8E 8E 84 
HI HI AE 07 88 55 00 D4 00 00 09 00 6C 5C 79 4A 92 8D 9B 57 8E 8D 8E 8E 84 
HI HI AE 07 88 55 00 D4 00 00 09 00 68 5A 7A 4A 92 8E 9B 7E 8E 8D 8D 8E 84 

AS28829C  19Jun2002
17:53-17:55(JST)
AOS   MEL  LOS  Elev
 19   101  180  47.0
Freq. 435.804-.785MHz
(JAS-2 No.103 A 2380-2800  120)
                                                         76 8D 8E 8E 8B 85 
HI HI AE 07 88 55 00 D4 00 00 09 00 38 67 7A 4B 91 8D 9A 79 8D 8E 8E 8B 85 
HI HI AE 07 88 55 00 D4 00 00 09 00 38 6B 78 4C 91 8D 9A 82 8D 8E 8E 8B 85 
HI HI AE 07 88 55 00 D4 00 00 09 00 38 76 74 

AS28803C  14Jun2002
19:31-19:4258(JST)
AOS   MEL  LOS  Elev
349   295  241  13.7
Freq. 435.801-.787MHz
(JAS-2 No.103 A 2380-2800 580)
 
                                 00 47 43 78 4B 92 8E 9D 89 87 88 93 91 84 
HI HI AE 07 88 55 00 D4 00 00 09 00 4A 2A 78 4B 92 8E 9B 81 87 88 93 91 84 
HI HI AE 07 88 55 00 D4 00 00 09 00 52 19 77 4C 92 8D 9B 6B 87 88 93 91 84 
HI HI AE 07 88 55 00 D4 00 00 09 00 8A 15 72 52 91 8D 9A 7F 87 88 93 91 84 
HI HI AE 07 88 55 00 D4 00 00 09 00 6C 19 70 4F 90 8C 99 6C 87 88 93 91 84 
HI HI AE 07 88 55 00 D4 00 00 09 00 7C 29 6A 52 8F 8B 98 80 87 87 93 91 84 
HI HI AE 07 88 55 00 D4 00 00 09 00 8B 40 62 56 8D 8A 96 6F 87 87 93 90 84 
HI HI AE 07 88 55 00 D4 00 00 09 00 97 5B 62 57 8C 88 95 77 87 88 93 90 84 
HI HI AE 07 88 55 00 D4 00 00 09 00 9F 73 5D 58 8B 88 94 7D 87 87 93 91 83 
HI HI AE 07 88 55 00 D4 00 00 09 00 A3 85 5C 58 8A 87 93 7D 87 87 93 90 84 
HI HI AE 07 88 55 00 D4 00 00 09 00 A3 8E 5B 5A 89 86 93 7B 87 87 93 90 84

AS28775C  15Jun2002
17:49-18:04(JST)
AOS   MEL  LOS  Elev
 17   103  185  60.4
Freq. 435.804-.784MHz
(JAS-2 No.103 A 2380-2800   980)

                                                      96 D6 91 87 86 8F 83 
HI HI AE 07 88 55 00 D4 53 F7 09 5B B5 6B 65 55 8D 89 96 78 91 87 86 8F 83 
HI HI AE 07 88 55 00 D4 53 F7 09 5B B3 7C 75 4E 8E 89 96 74 91 87 86 8F 83 
HI HI AE 07 88 55 00 D4 05 F7 09 61 AE 89 6B 52 8D 8A 97 7C 91 87 86 8F 83 
HI HI AE 07 88 55 00 D4 15 F7 09 61 A7 96 6F 4F 8F 8B 99 79 91 87 86 8F 83 
HI HI AE 07 88 55 00 D4 05 F7 09 61 9E A5 72 4D 90 8C 99 6E 91 87 87 8F 83 
HI HI AE 07 88 55 00 D4 05 F7 09 61 91 A9 73 4E 91 8D 9A 6C 91 87 87 8F 83 
HI HI AE 07 88 55 00 D4 05 F7 09 61 83 AD 74 4D 91 8D 9A 60 91 87 87 8F 83 
HI HI AE 07 8  55 00 D4 05 F7 09 61 74 AD 75 4E 91 8D 9A 6A 91 86 87 8F 83 
HI HI AE 07 88 55 00 D4 05 F7 09 61 65 A9 77 4D 91 8D 9A 66 91 86 87 8F 83 
HI HI AE 07 88 55 00 D4 05 F7 09 61 57 A1 77 4D 91 8D 9A 7F 91 86 87 8F 83 
HI HI AE 07 88 55 00 D4 05 F7 09 61 4A 96 77 4C 91 8D 9A 6B 90 86 87 90 83
HI HI AE 07 88 55 00 D4 05 F7 09 61 40 8A 75 4D 90 8D 9A B5 90 86 87 8F 83 
HI HI AE 07 88 55 0  D4 05 F7 19 61 39 7D 73 4F 90 8C 9A 7E 90 86 87 8F 83 
HI HI AE 07 88 55 00 D4 05 F7 09 61 3H 72 72 4E 90 8C 99 6F 90 86 87 8F 83 
HI HI AE 07 68 55 00 D4 05 F7 09 61 34 68 73 4E 90 8C 99 81 90 86 87 8F 83 
HI HI AE 07 88 55 00 D4 05 F7 09 61 36 61 73 4D 90 8C 9A 65 90 86 88 8F 83 
HI HI AE 07 88 55 00 D4 05 F7 09 61 3B 5E 77 4D 91 8C 9A 70 90 86 87 8F 83 
HI HI AE 07 88 55 00 D4 05 F7 09 61 41 5F 75 4D 91 8D 9A 75 8F 86 87 8F 83 
HI HI AE 07 88 55 00 D4 05 F7 09 61 47 63 75 

AS28762C  14Jun2002
18:46-18:58(JST)
AOS   MEL  LOS  Elev
  3   288  214  38.4
Freq. 435.804-.785MHz
(JAS-2 No.103 A 2380-2800)

HI HI AE 07 88 55 00 D4 29 98 09 4C 3F 29 66 54 8C 88 95 7E 85 8B 91 8B 84 
HI HI AE 07 88 55 00 D4 29 98 09 4C 40 3D 66 54 8C 88 95 79 85 8B 91 8B 84 
HI HI AE 07 88 55 00 D4 29 97 09 4C 46 3E 67 53 8C 89 95 98 85 8B 91 8B 84 
HI HI AE 07 88 55 00 D4 29 98 09 4C 4F 71 68 55 8C 89 96 73 85 8B 81 8B 84 
HI HI AE 0Z 88 55 00 D4 29 98 09 4C 5D 8A 67 54 8C 89 95 6C 85 8B 91 8B 84 
HI HI AE 17 88 55 00 D4 29 98 09 4C 6B 9F 65 54 8C 89 95 65 A7 8B 91 8B 84 
HI HI AE 07 88 55 00 D4 29 98 09 4C 79 AB 66 54 8C 8A 95 70 87 8B 91 8B 84 
HI HI AE 07 88 55 00 D4 29 98 09 4C 86 AF 67 53 8C 89 96 70 85 8B 91 8B 84 
HI HI AE 07 88 55 00 D4 29 95 09 4C 95 A9 69 52 8D 89 96 7D 85 8B 91 8B 84 
HI HI AE 07 88 55 00 D4 29 98 09 4C 97 9A 6E 50 8E 8A 96 6F 85 8B 91 8B 84 
HI HI AE 07 88 55 00 D4 29 9D 19 4C 99 8Z 6F 50 8E 8A 97 72 85 8B 91 8A 84 
HI HI AE 07 88 55 00 D4 29 98 09 4C 98 6F 6F 51 8E 8A 97 6D 85 8B 91 8B 84 
HI HI AE 07 88 55 00 D4 29 98 09 4C 93 5A 72 4E 8F 8B 98 7B 85 8B 91 8A 84 
HI HI AE 07 88 55 00 D4 29 98 09 4C 8D 47 71 4F 8E 8B 98 7D 85 8B 91 8A 83 
HI HE AE 07 88 55 00 D4 29 98 09 4C 85 39 73 4D 8E 8B 98 7E 85 8B 91 8A 83 
  
------------------------ FO-29の軌道要素 ------------------------------        
 
  ■ 軌道要素1:「jamsat−keps:1215」より         
          SB KEPS @ AMSAT  $ORB02171.N
          2Line Orbital Elements 02171.AMSAT

HR AMSAT ORBITAL ELEMENTS FOR AMATEUR SATELLITES IN NASA FORMAT
FROM WA5QGD FORT WORTH,TX June 20, 2002
SEND SUBSCRIBE/UNSUBSCRIBE TO majordomo@amsat.org ONLY
BID: ORB02171.N

 DECODE 2-LINE ELSETS WITH THE FOLLOWING KEY:
 1 AAAAAU 00  0  0 BBBBB.BBBBBBBB  .CCCCCCCC  00000-0  00000-0 0  DDDZ
 2 AAAAA EEE.EEEE FFF.FFFF GGGGGGG HHH.HHHH III.IIII JJ.JJJJJJJJKKKKKZ
 KEY: A-CATALOGNUM B-EPOCHTIME C-DECAY D-ELSETNUM E-INCLINATION F-RAAN
 G-ECCENTRICITY H-ARGPERIGEE I-MNANOM J-MNMOTION K-ORBITNUM Z-CHECKSUM

FO-29
1 24278U 96046B   02170.92840581  .00000035  00000-0  68504-4 0 05187
2 24278 098.5159 350.5619 0351341 128.1600 235.1765 13.52844060288365

 ■ 軌道要素2:「jamsat−keps:12014」より
 
       SB KEPS @ AMSAT  $ORB02171.O
       Orbital Elements  02171.OSCAR

HR AMSAT ORBITAL ELEMENTS FOR OSCAR SATELLITES
FROM WA5QGD FORT WORTH,TX June 20, 2002
SEND SUBSCRIBE/UNSUBSCRIBE TO majordomo@amsat.org ONLY
BID: ORB02171.O
TO ALL RADIO AMATEURS BT

Satellite: FO-29
Catalog number: 24278
Epoch time:      02170.92840581
Element set:    0518
Inclination:      098.5159 deg
RA of node:       350.5619 deg
Eccentricity:    0.0351341
Arg of perigee:   128.1600 deg
Mean anomaly:     235.1765 deg
Mean motion:   13.52844060 rev/day
Decay rate:        3.5e-07 rev/day^2
Epoch rev:           28836
Checksum:              304

-------------------  FO-29(JAS-2)のテレメトリに関する情報  ---------------------- 
 
2)上記2002年6月24日(月)のテレメトリの最終行を分析しておきます.

AS28898C  24Jun2002
18:21-18:36(JST)
AOS   MEL  LOS  Elev
  7   284  204  59.2
Freq. 435.805-.785MHz
(JAS-2 No.103 B 180  No.104 A 0-700) 
HI HI AE 07 88 55 00 D4 0E 00 09 46 55 8F 74 4D 8F 8B 98 7F 85 8C 90 88 82

